Vorticity
nan nan nan nan nan nan nan nan nan nan nan nan nan nan nan nan nan nan nan nan nan nan nan nan nan nan nan nan nan nan nan nan nan nan nan nan nan nan nan nan nan nan nan
nan 6 5 6 5 5 6 6 6 6 5 5 5 4 5 4 4 4 5 6 6 6 5 5 6 6 4 3 3 5 6 6 6 6 3 3 4 5 4 5 8 7 nan
nan 6 6 5 6 4 5 6 6 6 5 4 4 5 5 4 5 5 5 5 6 6 5 5 5 4 3 2 4 5 5 5 6 5 5 4 5 5 5 6 7 5 nan
nan 6 6 5 6 4 4 5 6 5 5 5 5 5 4 5 5 5 5 6 6 6 5 5 4 3 3 3 4 4 4 5 7 5 7 6 5 5 4 5 6 5 nan
nan 5 6 6 6 5 4 5 5 5 5 5 5 5 4 5 5 5 5 6 6 6 6 5 4 2 2 2 4 5 6 5 3 6 5 6 5 5 5 5 5 3 nan
nan 5 5 6 7 5 5 5 5 5 5 5 6 5 5 5 5 4 5 6 6 5 6 5 3 2 2 3 4 5 7 6 3 5 5 5 7 6 4 5 5 5 nan
nan 7 5 4 7 6 5 5 5 5 5 6 6 6 6 5 5 4 6 6 6 5 5 4 4 4 3 2 3 5 7 5 5 4 5 5 7 6 5 5 5 5 nan
nan 6 6 5 6 6 5 4 5 6 6 6 6 6 6 6 5 5 5 6 6 6 5 5 4 4 4 4 4 4 6 8 6 4 5 5 6 5 5 4 4 5 nan
nan 6 6 6 3 4 5 6 6 6 6 5 6 6 6 6 6 6 6 6 6 6 5 5 5 5 4 3 4 4 6 10 8 5 5 6 6 5 5 5 4 5 nan
nan 6 6 6 6 5 4 4 6 6 6 6 5 5 6 5 5 6 5 7 6 5 5 5 5 4 4 3 3 4 6 8 9 6 4 10 9 6 4 5 5 5 nan
nan 6 6 6 6 7 6 5 5 6 4 5 5 5 5 6 6 3 4 6 5 6 6 5 5 5 3 3 4 5 5 6 6 7 8 11 7 5 5 5 5 5 nan
nan 5 5 6 6 4 7 8 5 5 5 6 6 4 3 7 6 5 6 5 5 5 6 6 5 5 4 4 5 5 6 6 7 8 11 9 7 7 5 5 5 5 nan
nan 7 8 6 7 5 4 4 6 7 8 9 8 5 5 6 7 6 6 7 7 6 6 6 5 5 5 4 5 6 7 6 7 9 12 10 8 7 5 5 5 5 nan
nan 5 7 6 5 4 4 7 6 6 7 7 9 6 4 6 7 6 7 7 6 7 7 5 5 7 6 6 6 6 5 6 7 8 12 11 9 9 7 6 5 5 nan
nan 6 7 6 5 6 4 5 7 6 7 7 8 7 5 6 6 6 7 7 7 7 7 6 6 7 7 6 6 6 6 6 6 6 11 13 8 8 8 7 6 6 nan
nan 8 6 6 6 6 6 5 5 7 7 7 7 8 6 5 6 6 7 7 6 7 7 7 7 7 7 7 6 6 7 7 8 6 8 10 11 8 8 8 8 8 nan
nan 8 8 7 7 7 6 5 5 7 7 7 8 10 7 5 5 5 6 7 8 8 7 6 7 7 7 7 7 7 8 7 7 7 7 8 11 8 8 8 8 9 nan
nan 8 7 8 7 6 6 5 6 7 7 7 8 10 9 6 5 5 5 7 8 7 7 7 8 6 7 7 8 7 7 8 8 8 6 6 7 11 10 9 8 7 nan
nan 8 8 9 8 6 6 6 8 6 6 7 8 9 10 8 5 5 6 8 7 7 7 7 6 7 7 6 6 7 7 8 9 9 8 7 7 6 8 10 8 8 nan
nan 8 6 9 10 8 6 7 8 8 8 8 8 8 8 9 8 5 6 8 7 6 7 7 7 6 6 7 9 8 7 8 8 9 9 8 8 7 7 7 9 11 nan
nan 9 9 6 7 6 8 7 8 8 7 8 10 9 7 8 9 6 6 8 7 7 7 7 7 7 7 8 8 10 11 12 9 8 9 9 8 9 8 8 7 8 nan
nan 8 8 7 7 3 4 7 8 11 9 10 10 12 11 8 8 7 6 8 7 7 10 8 6 5 9 9 4 7 11 13 14 12 8 10 8 9 10 9 8 7 nan
nan 11 8 9 7 7 4 4 5 6 11 11 9 11 13 10 8 8 6 6 8 7 9 10 10 5 6 10 8 3 6 7 10 13 12 9 10 7 9 10 9 9 nan
nan 12 12 11 9 9 8 7 7 2 4 8 10 10 14 13 8 7 8 7 6 8 8 8 8 8 7 5 9 9 3 8 7 6 8 12 12 10 9 9 10 9 nan
nan 13 11 12 11 11 8 4 6 5 3 8 13 13 11 13 13 8 8 8 6 7 9 9 8 7 5 7 5 8 10 6 5 7 7 8 10 12 12 9 9 9 nan
nan nan nan nan nan nan nan nan nan nan nan nan nan nan nan nan nan nan nan nan nan nan nan nan nan nan nan nan nan nan nan nan nan nan nan nan nan nan nan nan nan nan nan
CAPE
412 422 860 1089 1136 1057 1241 1435 1621 1768 1946 2152 2296 2403 2510 2575 2474 2407 2529 2573 2585 2812 2392 2130 2543 2317 1801 1800 1883 2178 2061 1854 1716 1707 1650 1433 1132 1279 1375 1451 1182 561 1131
434 418 731 964 1010 975 1158 1291 1479 1624 1831 2020 2128 2217 2280 2299 2218 2227 2303 2408 2508 2555 2083 2001 2198 1843 1957 1960 2120 2094 1960 1801 1710 1649 1581 1252 1062 1097 1153 1293 1200 1154 1200
446 399 639 785 898 922 1092 1248 1446 1635 1826 1995 2013 2056 2076 2050 2033 2041 2005 2063 2229 2343 2006 1821 1772 1741 1747 1704 1781 1831 1777 1564 1438 1444 1186 564 835 1025 1130 1446 1532 1342 1150
377 346 262 663 787 856 975 1166 1311 1598 1781 1851 1871 1943 1962 1974 1933 1891 1825 1820 2014 2200 1920 1707 1633 1638 1455 1396 1261 1224 1228 1073 1002 985 582 250 529 1012 1043 1182 1238 1146 1059
292 214 240 561 651 790 913 1082 1174 1328 1485 1596 1654 1842 1869 1880 1849 1757 1644 1698 1936 2107 1951 1523 1534 1405 1276 1181 999 926 846 639 540 403 556 667 662 1183 1098 1075 983 946 1028
330 142 328 371 549 703 855 1043 1149 1133 1224 1351 1491 1730 1802 1773 1695 1576 1506 1625 1837 1906 1914 1514 1380 1288 1065 811 653 310 390 390 130 135 415 724 673 1069 1042 895 934 905 1089
439 225 408 258 450 645 805 946 957 963 1022 1217 1374 1509 1594 1568 1467 1357 1470 1478 1433 1594 1669 1576 1283 1002 832 622 304 15 0 109 16 114 397 630 883 992 865 886 864 852 841
470 345 332 294 364 525 622 603 547 643 849 1084 1225 1320 1488 1308 1137 1207 1382 1420 1202 1170 1206 1004 814 752 634 418 89 0 0 0 196 145 365 692 1246 1122 762 825 836 756 672
489 398 369 358 395 313 406 263 236 357 608 840 1001 1162 1175 909 812 1056 1216 1294 1155 923 783 664 604 541 476 235 1 0 0 0 530 440 250 699 1363 1280 806 769 754 639 567
490 495 437 499 424 477 546 103 78 168 314 518 711 853 749 648 701 778 881 1043 895 661 555 539 428 322 301 44 0 0 0 0 618 676 547 482 1453 1319 1047 750 714 634 553
259 441 376 432 451 522 479 299 65 93 117 221 444 515 470 681 771 672 406 705 522 292 328 355 215 135 50 0 0 0 0 0 0 542 682 346 1476 1546 1222 804 798 682 525
144 280 377 395 391 382 158 321 352 247 210 251 350 609 603 771 768 447 329 456 297 120 112 131 90 29 19 199 181 0 0 0 0 354 654 116 1095 1581 1386 982 891 613 571
74 129 264 381 372 298 173 238 216 268 253 308 335 360 210 361 591 539 541 401 425 157 183 93 133 144 140 153 213 91 3 91 497 345 321 16 700 1510 1500 1219 793 577 655
45 65 133 292 355 321 267 215 140 148 200 147 156 258 87 85 220 235 297 430 396 162 186 222 184 176 153 110 179 100 15 171 325 547 614 0 243 1595 1716 1472 1110 731 750
1 45 96 204 338 251 324 233 191 143 162 114 126 130 25 0 9 28 118 156 199 145 83 107 119 100 70 69 80 53 5 14 375 684 741 1 43 920 1992 1596 1147 980 828
0 4 76 124 254 293 357 314 227 168 146 127 90 54 52 0 0 0 6 55 122 100 30 17 13 22 25 18 60 18 1 0 318 734 729 578 1 305 1245 2075 1753 1204 1098
0 0 17 63 113 219 284 376 290 199 133 80 77 84 35 0 0 0 0 0 24 38 45 12 10 5 4 9 10 2 0 0 6 560 752 741 374 4 376 1046 1648 1732 1601
62 2 0 11 67 116 154 234 175 142 123 89 60 58 35 0 0 0 0 0 0 16 10 0 0 0 0 0 0 0 0 0 0 144 518 629 641 542 161 156 677 1131 1318
189 180 89 35 58 102 135 147 148 128 98 78 55 29 40 4 0 0 0 0 0 0 0 2 0 0 0 0 0 0 0 0 0 0 311 507 709 571 801 349 55 186 435
264 396 304 177 77 58 93 109 93 94 84 72 51 31 21 19 0 0 0 0 0 0 0 0 0 0 0 0 0 0 0 0 0 77 154 310 493 611 583 648 625 409 2
520 407 606 368 369 91 94 92 78 116 75 74 49 39 25 20 1 0 0 0 0 0 0 0 0 0 0 0 0 0 0 0 2 73 196 272 280 332 554 541 630 607 279
160 547 772 792 533 197 177 109 105 89 81 49 38 50 39 19 30 0 0 0 0 0 0 0 0 0 0 15 14 21 40 234 58 157 223 275 357 296 228 359 533 548 324
0 19 450 1003 936 417 325 180 90 60 60 11 26 43 40 18 29 16 0 5 0 0 0 0 0 4 0 11 14 71 101 142 345 68 106 137 160 167 121 114 93 106 108
0 0 0 364 967 666 504 236 263 309 216 180 110 27 23 0 3 13 42 7 13 7 6 10 7 19 4 24 10 31 197 127 253 504 15 3 10 10 23 8 5 3 3
0 0 0 0 336 688 634 569 405 477 600 571 562 124 117 9 2 0 29 40 31 47 53 63 23 55 77 23 119 187 62 55 0 34 275 39 2 3 1 0 0 1 0
0 0 0 0 5 498 648 708 613 570 690 740 655 450 290 167 117 41 8 93 84 75 107 134 200 120 149 160 335 394 275 121 34 4 5 115 12 4 6 4 1 1 2